Regional Weather Roundup
Issued by NWS

Home | Current Version | Previous Version | Text Only | Print | Product List | Glossary On
Versions: 1 2 3 4 5 6 7 8 9 10 11 12 13 14 15 16 17 18 19 20 21 22 23 24 25 26 27 28 29 30 31 32 33 34 35 36 37 38 39 40 41 42 43 44 45 46 47 48 49 50
000
ASUS43 KLSX 221407
RWRMO

WEATHER SUMMARY FOR MISSOURI
NATIONAL WEATHER SERVICE SPRINGFIELD MO
900 AM CDT MON MAY 22 2017

NOTE: "FAIR" INDICATES FEW OR NO CLOUDS BELOW 12,000 FEET WITH NO
       SIGNIFICANT WEATHER AND/OR OBSTRUCTIONS TO VISIBILITY.
       CURRENT SKY AND/OR WEATHER CONDITIONS ARE NOT AVAILABLE FOR
       CHILLICOTHE AND FARMINGTON.

MOZ001>031-035>038-043-044-053-054-221500-
...NORTHERN AND WESTERN MISSOURI...

CITY           SKY/WX    TMP DP  RH WIND       PRES   REMARKS
KANSAS CTY INT CLOUDY    65  54  67 SW10      30.05F
KANSAS C DTWN  MOSUNNY   67  52  58 SW9       30.04F
LEE`S SUMMIT   CLOUDY    66  54  65 SW10      30.07F
ST JOSEPH      CLOUDY    59  54  83 SW7       30.04S
CHILLICOTHE      N/A     60  52  74 S6        30.05F
KIRKSVILLE     SUNNY     63  48  58 SW12      30.05F

$$
MOZ066>068-077>081-088>096-101>105-221500-
...SOUTHWEST MISSOURI...

CITY           SKY/WX    TMP DP  RH WIND       PRES   REMARKS
SPRINGFIELD    CLOUDY    61  50  67 S13       30.14R
JOPLIN         SUNNY     67  55  65 S9        30.13F
BRANSON        PTSUNNY   59  50  72 S7        30.16F

$$
MOZ032>034-039>042-045>050-055>058-069>072-221500-
...CENTRAL MISSOURI...

CITY           SKY/WX    TMP DP  RH WIND       PRES   REMARKS
COLUMBIA       SUNNY     62  52  69 S9        30.11S
JEFFERSON CITY SUNNY     62  50  64 SE6       30.11F
ROLLA          SUNNY     62  52  69 S8        30.12S
SEDALIA        SUNNY     67  56  67 SW9       30.11R
WHITEMAN AFB   MOSUNNY   64  59  83 SW12      30.08S
WARRENSBURG    SUNNY     64  54  68 S10       30.09S
OSAGE BEACH    SUNNY     61  52  72 S5        30.13F

$$
MOZ051-052-059>065-221500-
...EAST CENTRAL MISSOURI...

CITY           SKY/WX    TMP DP  RH WIND       PRES   REMARKS
ST LOUIS INTL  PTSUNNY   67  47  48 S9        30.13S
SPIRIT OF STL  MOSUNNY   62  53  72 CALM      30.12F
ST CHARLES     SUNNY     61  54  77 VRB5      30.12S

$$
MOZ072>076-082>087-097>100-106>115-221500-
...SOUTH CENTRAL AND SOUTHEAST MISSOURI...

CITY           SKY/WX    TMP DP  RH WIND       PRES   REMARKS
CAPE GIRARDEAU PTSUNNY   62  53  72 S3        30.15S
FARMINGTON     CLOUDY    59  51  75 CALM      30.15F
POPLAR BLUFF   CLOUDY    63  53  70 E7        30.15S
WEST PLAINS    CLOUDY    60  47  61 SE5       30.16S

$$




USA.gov is the U.S. government's official web portal to all federal, state and local government web resources and services.